Flight Track Log - Related Links

Times and Time Zones

All times are in EDT time to prevent confusion due to time zone crossing. See the N433G flight status page for this flight to view local times or setup timezone preferences in your user account.

Time Position Orientation Groundspeed Altitude Reporting Facility
EDT Latitude Longitude Course Direction KTS MPH feet Rate Location/Type
Thu 05:50:05 PM 45.1753 -93.2094 316° Northwest 96 110 1,800  Level Minneapolis Center
Thu 05:51:07 PM 45.1953 -93.2372 316° Northwest 137 158 2,600 726 Climbing Minneapolis Center
Thu 05:52:09 PM 45.1883 -93.2992 261° West 160 184 3,300 677 Climbing Minneapolis Center
Thu 05:53:11 PM 45.1769 -93.3611 255° West 164 189 4,000 677 Climbing Minneapolis Center
Thu 05:54:13 PM 45.1575 -93.4197 245° Southwest 165 190 4,700 677 Climbing Minneapolis Center
Thu 05:55:15 PM 45.1258 -93.4806 234° Southwest 161 185 5,400 624 Climbing Minneapolis Center
Thu 05:56:18 PM 45.0858 -93.5053 204° Southwest 164 189 6,000 576 Climbing Minneapolis Center
Thu 05:57:20 PM 45.0408 -93.5158 189° South 165 190 6,600 581 Climbing Minneapolis Center
Thu 05:58:22 PM 44.9961 -93.5242 188° South 164 189 7,200 532 Climbing Minneapolis Center
Thu 05:59:24 PM 44.9503 -93.5311 186° South 166 191 7,700 435 Climbing Minneapolis Center
Thu 06:00:26 PM 44.8903 -93.5431 188° South 185 213 8,100 532 Climbing Minneapolis Center
Thu 06:01:28 PM 44.8400 -93.5522 187° South 184 212 8,800 629 Climbing Minneapolis Center
Thu 06:02:30 PM 44.7903 -93.5611 187° South 182 209 9,400 532 Climbing Minneapolis Center
Thu 06:03:32 PM 44.7400 -93.5706 188° South 184 212 9,900 290 Climbing Minneapolis Center
Thu 06:04:34 PM 44.6744 -93.5828 188° South 203 234 10,000 48 Climbing Minneapolis Center
Thu 06:05:36 PM 44.6189 -93.5925 187° South 204 235 10,000  Level Minneapolis Center
Thu 06:06:39 PM 44.5633 -93.6025 187° South 202 232 10,000  Level Minneapolis Center
Thu 06:07:41 PM 44.5092 -93.6114 187° South 199 229 10,000  Level Minneapolis Center
Thu 06:08:43 PM 44.4547 -93.6219 188° South 198 228 10,000  Level Minneapolis Center
Thu 06:09:45 PM 44.3892 -93.6356 188° South 199 229 10,000  Level Minneapolis Center
Thu 06:10:47 PM 44.3356 -93.6447 187° South 196 226 10,000 48 Level Minneapolis Center
Thu 06:11:49 PM 44.2886 -93.6167 157° South 186 214 10,100 48 Climbing Minneapolis Center
Thu 06:12:51 PM 44.2403 -93.5925 160° South 186 214 10,100  Level Minneapolis Center
Thu 06:13:53 PM 44.1922 -93.5631 156° South 188 216 10,100  Level Minneapolis Center
Thu 06:14:55 PM 44.1447 -93.5328 155° Southeast 189 217 10,100  Level Minneapolis Center
Thu 06:15:57 PM 44.0867 -93.4983 157° South 190 219 10,100 -48 Level Minneapolis Center
Thu 06:17:00 PM 44.0389 -93.4686 156° South 187 215 10,000 -48 Descending Minneapolis Center
Thu 06:18:02 PM 43.9908 -93.4383 156° South 189 217 10,000  Level Minneapolis Center
Thu 06:19:04 PM 43.9436 -93.4094 156° South 188 216 10,000  Level Minneapolis Center
Thu 06:20:06 PM 43.8964 -93.3797 156° South 187 215 10,000  Level Minneapolis Center
Thu 06:21:08 PM 43.8389 -93.3450 156° South 188 216 10,000  Level Minneapolis Center
Thu 06:22:10 PM 43.7919 -93.3167 156° South 185 213 10,000  Level Minneapolis Center
Thu 06:23:12 PM 43.7453 -93.2894 157° South 185 213 10,000  Level Minneapolis Center
Thu 06:24:14 PM 43.6989 -93.2614 156° South 183 211 10,000  Level Minneapolis Center
Thu 06:25:16 PM 43.6514 -93.2342 157° South 183 211 10,000  Level Minneapolis Center
Thu 06:26:18 PM 43.5967 -93.2011 156° South 180 207 10,000  Level Minneapolis Center
Thu 06:27:20 PM 43.5494 -93.1725 156° South 183 211 10,000  Level Minneapolis Center
Thu 06:28:22 PM 43.4997 -93.1406 155° Southeast 187 215 10,000  Level Minneapolis Center
Thu 06:29:24 PM 43.4528 -93.1128 157° South 186 214 10,000  Level Minneapolis Center
Thu 06:30:27 PM 43.4025 -93.0828 157° South 184 212 10,000  Level Minneapolis Center
Thu 06:31:29 PM 43.3567 -93.0528 155° Southeast 184 212 10,000  Level Minneapolis Center
Thu 06:32:31 PM 43.3067 -93.0253 158° South 181 208 10,000  Level Minneapolis Center
Thu 06:33:33 PM 43.2642 -93.0011 158° South 181 208 10,000 48 Level Minneapolis Center
Thu 06:34:35 PM 43.2183 -92.9739 157° South 181 208 10,100 48 Climbing Minneapolis Center
Thu 06:35:37 PM 43.1639 -92.9433 158° South 179 206 10,100  Level Minneapolis Center
Thu 06:36:39 PM 43.1175 -92.9156 156° South 182 209 10,100  Level Minneapolis Center
Thu 06:37:41 PM 43.0719 -92.8861 155° Southeast 183 211 10,100  Level Minneapolis Center
Thu 06:38:44 PM 43.0278 -92.8547 153° Southeast 181 208 10,100  Level Minneapolis Center
Thu 06:39:46 PM 42.9867 -92.8172 146° Southeast 181 208 10,100 -48 Level Minneapolis Center
Thu 06:40:48 PM 42.9381 -92.7711 145° Southeast 179 206 10,000 -48 Descending Minneapolis Center
Thu 06:41:50 PM 42.8972 -92.7319 145° Southeast 181 208 10,000  Level Minneapolis Center
Thu 06:42:52 PM 42.8572 -92.6925 144° Southeast 180 207 10,000  Level Minneapolis Center
Thu 06:43:54 PM 42.8164 -92.6550 146° Southeast 179 206 10,000  Level Minneapolis Center
Thu 06:44:56 PM 42.7661 -92.6064 145° Southeast 184 212 10,000  Level Minneapolis Center
Thu 06:45:58 PM 42.7250 -92.5661 144° Southeast 185 213 10,000  Level Minneapolis Center
Thu 06:47:00 PM 42.6825 -92.5278 146° Southeast 184 212 10,000  Level Minneapolis Center
Thu 06:48:02 PM 42.6403 -92.4886 146° Southeast 185 213 10,000  Level Minneapolis Center
Thu 06:49:04 PM 42.5994 -92.4497 145° Southeast 184 212 10,000  Level Minneapolis Center
Thu 06:50:06 PM 42.5528 -92.4011 142° Southeast 181 208 10,000  Level Minneapolis Center
Thu 06:51:08 PM 42.5144 -92.3592 141° Southeast 180 207 10,000  Level Minneapolis Center
Thu 06:52:10 PM 42.4769 -92.3197 142° Southeast 177 204 10,000 -247 Level Minneapolis Center
Thu 06:54:22 PM 42.3883 -92.2278 143° Southeast 179 206 9,200 -402 Descending Chicago Center
Thu 06:55:24 PM 42.3464 -92.1833 142° Southeast 185 213 8,700 -532 Descending Chicago Center
Thu 06:56:26 PM 42.2944 -92.1314 144° Southeast 191 220 8,100 -528 Descending Chicago Center
Thu 06:57:29 PM 42.2539 -92.0867 141° Southeast 192 221 7,600 -480 Descending Chicago Center
Thu 06:58:31 PM 42.2111 -92.0444 144° Southeast 192 221 7,100 -290 Descending Chicago Center
Thu 06:59:33 PM 42.1706 -92.0028 143° Southeast 190 219 7,000 -290 Descending Chicago Center
Thu 07:00:35 PM 42.1453 -91.9442 120° Southeast 188 216 6,500 -532 Descending Chicago Center
Thu 07:01:37 PM 42.1156 -91.8683 118° Southeast 192 221 5,900 -629 Descending Chicago Center
Thu 07:02:39 PM 42.0850 -91.8114 126° Southeast 192 221 5,200 -677 Descending Chicago Center
Thu 07:03:41 PM 42.0522 -91.7547 128° Southeast 193 222 4,500 -677 Descending Chicago Center
Thu 07:04:43 PM 42.0208 -91.7003 128° Southeast 191 220 3,800 -726 Descending Chicago Center
Thu 07:05:45 PM 41.9728 -91.6506 142° Southeast 194 223 3,000 -720 Descending Chicago Center
Thu 07:06:48 PM 41.9242 -91.6478 178° South 182 209 2,300 -624 Descending Chicago Center
Thu 07:07:50 PM 41.8808 -91.6486 181° South 165 190 1,700 -581 Descending Chicago Center
Thu 07:09:00 PM 41.8833 -91.7000 56° Northeast  Level FlightAware Approximate
Thu 07:16:00 PM 41.8847 -91.7108 56° Northeast  Level Estimated
Thu 07:17:00 PM 41.8847 -91.7108 56° Northeast  Level Estimated

Login

Don't have an account? Register now (free) for customized features, flight alerts, and more!